• Join FlightAware (Why Join?)
  • Login
  • US Flag 
11:44PM EDT


 

Airport Tracker/Info


-or-


 

Live Flight TrackerFlight Track Log ✈ AWE3434 ✈ 25-Apr-2013 ✈ KPHL - KCMH

Flight Track Log - Related Links

Times and Time Zones

All times are in EDT time to prevent confusion due to time zone crossing. See the AWE3434 flight status page for this flight to view local times or setup timezone preferences in your user account.

Time Position Orientation Groundspeed Altitude Reporting Facility
EDT Latitude Longitude Course Direction KTS MPH feet Rate Location/Type
01:56PM 39.8603 -75.2781 270° West 164 189 1,000  Level FAA TRACON SMA TRACON (SMA)
01:56PM 39.8561 -75.2969 254° West 148 170 1,800 1,680 Climbing FAA TRACON SMA TRACON (SMA)
01:56PM 39.8517 -75.3153 252° West 179 206 2,200 1,500 Climbing FAA TRACON SMA TRACON (SMA)
01:57PM 39.8472 -75.3361 254° West 202 232 2,800 1,560 Climbing FAA TRACON SMA TRACON (SMA)
01:57PM 39.8353 -75.3906 254° West 237 273 3,800 1,980 Climbing FAA TRACON SMA TRACON (SMA)
01:58PM 39.9047 -75.6189 288° West  Level FlightAware Approximate
01:58PM 39.8286 -75.4183 253° West 258 297 4,800  Level FAA TRACON SMA TRACON (SMA)
01:58PM 39.8208 -75.4522 253° West 258 297 6,000 3,420 Climbing FAA TRACON SMA TRACON (SMA)
01:58PM 39.8197 -75.4811 267° West 258 297 7,100 3,000 Climbing FAA TRACON SMA TRACON (SMA)
01:59PM 39.9031 -75.7478 258° West  Level FlightAware Approximate
01:59PM 39.8239 -75.5092 281° West 261 300 8,000  Level FAA TRACON SMA TRACON (SMA)
01:59PM 39.8281 -75.5450 279° West 260 299 9,100 2,700 Climbing FAA TRACON SMA TRACON (SMA)
01:59PM 39.8317 -75.5731 280° West 262 302 9,800 1,320 Climbing FAA TRACON SMA TRACON (SMA)
02:00PM 39.9001 -75.8664 270° West  Level FlightAware Approximate
02:00PM 39.8356 -75.6025 280° West 261 300 10,000  Level FAA TRACON SMA TRACON (SMA)
02:00PM 39.8400 -75.6383 279° West 261 300 10,400 1,860 Climbing FAA TRACON SMA TRACON (SMA)
02:00PM 39.8436 -75.6672 279° West 263 303 11,300 2,700 Climbing FAA TRACON SMA TRACON (SMA)
02:01PM 39.9000 -75.9855 270° West  Level FlightAware Approximate
02:01PM 39.8472 -75.6964 279° West 264 304 12,200  Level FAA TRACON SMA TRACON (SMA)
02:01PM 39.8514 -75.7306 279° West 262 302 13,200 2,820 Climbing FAA TRACON SMA TRACON (SMA)
02:01PM 39.8550 -75.7594 279° West 258 297 14,100 2,400 Climbing FAA TRACON SMA TRACON (SMA)
02:02PM 39.8589 -75.7886 280° West 258 297 14,800 2,400 Climbing FAA TRACON SMA TRACON (SMA)
02:02PM 39.8631 -75.8242 279° West 259 298 15,700 2,400 Climbing FAA TRACON SMA TRACON (SMA)
02:02PM 39.8667 -75.8531 279° West 261 300 16,400 2,100 Climbing FAA TRACON SMA TRACON (SMA)
02:03PM 39.8700 -75.8808 279° West 263 303 17,100 2,100 Climbing FAA TRACON SMA TRACON (SMA)
02:03PM 39.8744 -75.9114 281° West 266 306 17,800 1,500 Climbing FAA TRACON SMA TRACON (SMA)
02:03PM 39.8781 -75.9414 279° West 269 310 18,100 1,560 Climbing FAA TRACON SMA TRACON (SMA)
02:06PM 39.9078 -76.1889 279° West 286 329 22,300 1,680 Climbing New York Center
02:07PM 39.9092 -76.2944 271° West 292 336 24,200 1,560 Climbing New York Center
02:08PM 39.9144 -76.4031 274° West 297 342 25,400 1,560 Climbing New York Center
02:09PM 39.9175 -76.5117 272° West 302 348 27,300 1,680 Climbing New York Center
02:10PM 39.9228 -76.6178 274° West 302 348 28,900 1,560 Climbing New York Center
02:11PM 39.9278 -76.7264 273° West 302 348 30,400 1,560 Climbing New York Center
02:12PM 39.9325 -76.8378 273° West 309 356 32,000 780 Climbing New York Center
02:13PM 39.9375 -76.9414 274° West 309 356 32,000  Level New York Center
02:14PM 39.9403 -77.0472 272° West 304 350 32,000  Level New York Center
02:15PM 39.9453 -77.1506 274° West 298 343 32,000  Level New York Center
02:19PM 39.9603 -77.5575 273° West 295 339 32,000  Level Cleveland Center
02:20PM 39.9650 -77.6631 273° West 290 334 32,000  Level Cleveland Center
02:21PM 39.9678 -77.7686 272° West 290 334 32,000  Level Cleveland Center
02:22PM 39.9703 -77.8767 272° West 290 334 32,000  Level Cleveland Center
02:23PM 39.9753 -77.9986 273° West 295 339 32,000  Level Cleveland Center
02:24PM 39.9775 -78.1042 272° West 295 339 32,000  Level Cleveland Center
02:25PM 39.9800 -78.2125 272° West 295 339 32,000  Level Cleveland Center
02:26PM 39.9778 -78.3156 268° West 301 346 32,000  Level Cleveland Center
02:27PM 39.9819 -78.4236 273° West 306 352 32,000  Level Cleveland Center
02:28PM 39.9839 -78.5292 271° West 306 352 32,000  Level Cleveland Center
02:29PM 39.9881 -78.6347 273° West 306 352 32,000  Level Cleveland Center
02:30PM 39.9897 -78.7458 271° West 306 352 32,000  Level Cleveland Center
02:31PM 39.9914 -78.8517 271° West 306 352 32,000  Level Cleveland Center
02:32PM 39.9953 -78.9597 273° West 306 352 32,000 -240 Level Cleveland Center
02:33PM 40.0008 -79.0681 274° West 306 352 31,600 -480 Descending Cleveland Center
02:34PM 40.0022 -79.1739 271° West 306 352 31,100 -540 Descending Cleveland Center
02:35PM 40.0033 -79.2822 271° West 306 352 30,600 -540 Descending Cleveland Center
02:36PM 40.0067 -79.3933 272° West 306 352 30,100 -300 Descending Cleveland Center
02:37PM 40.0078 -79.5017 271° West 306 352 30,000 -60 Descending Cleveland Center
02:38PM 40.0089 -79.6100 271° West 306 352 30,000  Level Cleveland Center
02:39PM 40.0117 -79.7211 272° West 306 352 30,000  Level Cleveland Center
02:40PM 40.0106 -79.8269 269° West 306 352 30,000  Level Cleveland Center
02:41PM 40.0133 -79.9381 272° West 306 352 30,000  Level Cleveland Center
02:42PM 40.0139 -80.0572 270° West 306 352 30,000  Level Cleveland Center
02:43PM 40.0164 -80.1656 272° West 306 352 30,000  Level Cleveland Center
02:44PM 40.0167 -80.2767 270° West 306 352 30,000  Level Cleveland Center
02:45PM 40.0169 -80.3825 270° West 306 352 30,000 -660 Level Cleveland Center
02:46PM 40.0172 -80.4883 270° West 306 352 28,700 -1,500 Descending Cleveland Center
02:47PM 40.0192 -80.5939 271° West 301 346 27,100 -1,620 Descending Cleveland Center
02:48PM 40.0192 -80.7050 270° West 301 346 25,500 -1,560 Descending Cleveland Center
02:49PM 40.0169 -80.8189 269° West 306 352 24,000 -1,260 Descending Cleveland Center
02:50PM 39.9978 -80.9300 257° West 311 358 23,000 -1,380 Descending Cleveland Center
02:51PM 39.9786 -81.0328 256° West 311 358 21,300 -1,920 Descending Cleveland Center
02:52PM 39.9556 -81.1333 253° West 283 326 19,200 -1,920 Descending Indianapolis Center
02:53PM 39.9358 -81.2336 256° West 272 313 17,400 -1,800 Descending Indianapolis Center
02:54PM 39.9183 -81.3272 256° West 265 305 15,500 -1,860 Descending Indianapolis Center
02:55PM 39.8997 -81.4172 255° West 258 297 13,600 -1,860 Descending Indianapolis Center
02:56PM 39.8822 -81.5053 256° West 257 296 11,700 -1,740 Descending Indianapolis Center
02:57PM 39.8656 -81.5919 256° West 248 285 10,100 -780 Descending Indianapolis Center
02:58PM 39.8492 -81.6756 256° West 237 273 10,100  Level Indianapolis Center
02:59PM 39.8292 -81.7736 255° West 240 276 10,100 -60 Level Indianapolis Center
03:00PM 39.8125 -81.8575 256° West 238 274 10,000 -60 Descending Indianapolis Center
03:01PM 39.7969 -81.9267 254° West 238 274 10,000  Level Indianapolis Center
03:01PM 39.7961 -81.9403 265° West 235 270 10,000  Level Indianapolis Center
03:02PM 39.7781 -82.0256 255° West 242 278 10,000  Level Indianapolis Center
03:03PM 39.8000 -82.1025 290° West 252 290 10,000  Level Indianapolis Center
03:04PM 39.8408 -82.1653 310° West 228 262 10,000 -120 Level Indianapolis Center
03:05PM 39.8822 -82.2306 310° West 231 266 9,800 -960 Descending Indianapolis Center
03:06PM 39.9217 -82.3008 306° West 207 238 8,100 -1,440 Descending Indianapolis Center
03:07PM 39.9461 -82.3633 297° West 196 226 6,900 -1,020 Descending Indianapolis Center
03:08PM 39.9686 -82.4242 296° West 186 214 6,000 -1,020 Descending Indianapolis Center
03:09PM 39.9725 -82.4881 275° West 176 203 4,800 -1,020 Descending Indianapolis Center
03:10PM 39.9756 -82.5561 273° West 180 207 4,000 -660 Descending Indianapolis Center
03:11PM 39.9797 -82.6219 275° West 180 207 3,500 -480 Descending Indianapolis Center
03:12PM 39.9828 -82.6822 274° West 177 204 3,000 -300 Descending Indianapolis Center
03:13PM 39.9847 -82.7367 273° West 155 178 3,000  Level Indianapolis Center